Malaga, Spain

4:17 AM CEST on July 23, 2017 (GMT +0200)
Malaga

Weather History for LEMG - May, 2013

Change the Weather History Date:

Wednesday, May 8, 2013

  Actual Average Record
Temperature  
Mean Temperature 72 °F -  
Max Temperature 84 °F 76 °F 91 °F (2005)
Min Temperature 59 °F 58 °F 51 °F (2017)
Cooling Degree Days 6    
Growing Degree Days 22 (Base 50)    
Moisture  
Dew Point 50 °F    
Average Humidity 54    
Maximum Humidity 77    
Minimum Humidity 13    
Precipitation  
Precipitation 0.00 in 0.03 in - ()
Sea Level Pressure  
Sea Level Pressure 29.99 in    
Wind  
Wind Speed 5 mph ()    
Max Wind Speed 12 mph    
Max Gust Speed -    
Visibility 7.2 miles    
Events      
Averages and records for this station are not official NWS values.
T = Trace of Precipitation, MM = Missing Value Source: Averaged Metar Reports

Daily Weather History Graph

Daily Weather History Graph

Search for Another Location

Airport or City:

Trip Planner

Search our weather history database for the weather conditions in past years. The results will help you decide how hot, cold, wet, or windy it might be!

Date:

Astronomy

May. 08, 2013 Rise Set
Actual Time 7:16 AM CEST 9:12 PM CEST
Civil Twilight 6:48 AM CEST 9:40 PM CEST
Nautical Twilight 6:14 AM CEST 10:15 PM CEST
Astronomical Twilight 5:37 AM CEST 10:52 PM CEST
Moon 6:14 AM CEST (5/8) 7:58 PM CEST (5/8)
Length of Visible Light 14h 52m
Length of Day
13h 55m
Waning Crescent, 2% of the Moon is Illuminated
May 8
Waning Crescent
May 10
New
May 18
First Quarter
May 25
Full
May 31
Last Quarter

Hourly Weather History & Observations

Time (CEST) Temp. Dew Point Humidity Pressure Visibility Wind Dir Wind Speed Gust Speed Precip Events Conditions
12:00 AM 64.4 °F 51.8 °F 64% 30.06 in 6.2 mi WNW 2.3 mph - N/A   Partly Cloudy
12:30 AM 60.8 °F 50.0 °F 68% 30.04 in 6.2 mi WNW 5.8 mph - N/A   Partly Cloudy
1:00 AM 60.8 °F 50.0 °F 68% 30.04 in 6.2 mi WNW 6.9 mph - N/A   Partly Cloudy
1:30 AM 59.0 °F 50.0 °F 72% 30.04 in - WNW 4.6 mph - N/A   Clear
2:00 AM 64 °F 49 °F 47% 30.06 in 12 mi WNW 8.1 mph - -   Clear
2:00 AM 60.8 °F 48.2 °F 63% 30.04 in - WNW 8.1 mph - N/A   Clear
2:30 AM 60.8 °F 48.2 °F 63% 30.04 in - WNW 5.8 mph - N/A   Clear
3:00 AM 62.6 °F 48.2 °F 59% 30.04 in - WNW 6.9 mph - N/A   Clear
3:30 AM 62.6 °F 48.2 °F 59% 30.01 in 6.2 mi WNW 6.9 mph - N/A   Partly Cloudy
4:00 AM 62.6 °F 48.2 °F 59% 30.01 in 6.2 mi West 6.9 mph - N/A   Partly Cloudy
4:30 AM 62.6 °F 48.2 °F 59% 30.01 in 6.2 mi West 5.8 mph - N/A   Partly Cloudy
5:00 AM 60.8 °F 48.2 °F 63% 30.01 in 6.2 mi WNW 5.8 mph - N/A   Partly Cloudy
5:30 AM 59.0 °F 50.0 °F 72% 30.01 in 6.2 mi WNW 5.8 mph - N/A   Partly Cloudy
6:00 AM 57.2 °F 50.0 °F 77% 29.98 in 6.2 mi WNW 3.5 mph - N/A   Partly Cloudy
6:30 AM 59.0 °F 50.0 °F 72% 30.01 in 6.2 mi WNW 8.1 mph - N/A   Partly Cloudy
7:00 AM 59.0 °F 50.0 °F 72% 30.01 in 6.2 mi WNW 3.5 mph - N/A   Partly Cloudy
7:30 AM 57.2 °F 50.0 °F 77% 30.01 in 6.2 mi WNW 5.8 mph - N/A   Partly Cloudy
8:00 AM 60 °F 50 °F 60% 30.02 in 25 mi WNW 5.8 mph - -   Scattered Clouds
8:00 AM 59.0 °F 50.0 °F 72% 30.01 in 6.2 mi WNW 5.8 mph - N/A   Partly Cloudy
8:30 AM 60.8 °F 51.8 °F 72% 30.01 in 6.2 mi WNW 5.8 mph - N/A   Partly Cloudy
9:00 AM 59.0 °F 51.8 °F 77% 30.01 in 6.2 mi WNW 4.6 mph - N/A   Partly Cloudy
9:30 AM 64.4 °F 51.8 °F 64% 30.01 in 6.2 mi WNW 5.8 mph - N/A   Partly Cloudy
10:00 AM 68.0 °F 51.8 °F 56% 30.01 in - WNW 4.6 mph - N/A   Clear
10:30 AM 71.6 °F 51.8 °F 50% 30.01 in - WNW 3.5 mph - N/A   Clear
11:00 AM 75.2 °F 51.8 °F 44% 30.01 in - Calm Calm - N/A   Clear
11:30 AM 75.2 °F 50.0 °F 41% 30.01 in - SE 5.8 mph - N/A   Clear
12:00 PM 77.0 °F 44.6 °F 32% 30.01 in - SE 6.9 mph - N/A   Clear
1:00 PM 80.6 °F 46.4 °F 30% 29.98 in - SE 8.1 mph - N/A   Clear
1:30 PM 84.2 °F 41.0 °F 22% 29.98 in - SE 6.9 mph - N/A   Clear
2:00 PM 83 °F 45 °F 17% 30.00 in 22 mi SSE 8.1 mph - -   Scattered Clouds
2:00 PM 82.4 °F 42.8 °F 25% 29.98 in - SSE 8.1 mph - N/A   Clear
2:30 PM 82.4 °F 41.0 °F 23% 29.98 in - SSE 9.2 mph - N/A   Clear
3:00 PM 82.4 °F 41.0 °F 23% 29.98 in - SSE 6.9 mph - N/A   Clear
3:30 PM 82.4 °F 44.6 °F 26% 29.98 in - SE 6.9 mph - N/A   Clear
4:00 PM 82.4 °F 44.6 °F 26% 29.95 in - SSE 6.9 mph - N/A   Clear
4:30 PM 82.4 °F 46.4 °F 28% 29.95 in - SSE 5.8 mph - N/A   Clear
5:00 PM 78.8 °F 51.8 °F 39% 29.95 in - ESE 4.6 mph - N/A   Clear
5:30 PM 77.0 °F 57.2 °F 50% 29.95 in - NNE 11.5 mph - N/A   Clear
6:00 PM 73.4 °F 55.4 °F 53% 29.95 in - NE 10.4 mph - N/A   Clear
6:30 PM 71.6 °F 55.4 °F 57% 29.95 in - NE 9.2 mph - N/A   Clear
7:00 PM 73.4 °F 53.6 °F 50% 29.95 in - NE 4.6 mph - N/A   Clear
7:30 PM 71.6 °F 55.4 °F 57% 29.95 in - ENE 3.5 mph - N/A   Clear
8:00 PM 71 °F 32 °F 13% 29.95 in 19 mi 1.2 mph - -   Scattered Clouds
8:00 PM 69.8 °F 57.2 °F 64% 29.95 in - Variable 1.2 mph - N/A   Clear
8:30 PM 71.6 °F 57.2 °F 60% 29.95 in - NNE 2.3 mph - N/A   Clear
9:00 PM 69.8 °F 59.0 °F 68% 29.95 in - Variable 2.3 mph - N/A   Clear
9:30 PM 68.0 °F 57.2 °F 68% 29.95 in - Calm Calm - N/A   Clear
10:00 PM 68.0 °F 59.0 °F 73% 29.95 in - Calm Calm - N/A   Clear
10:30 PM 66.2 °F 57.2 °F 73% 29.95 in - Calm Calm - N/A   Clear
11:00 PM 66.2 °F 57.2 °F 73% 29.98 in - Calm Calm - N/A   Clear
11:30 PM 66.2 °F 57.2 °F 73% 29.98 in - SE 1.2 mph - N/A   Clear